Satellite: RESURS Catalog number: 25394 Epoch time: 09224.92678331 Element set: 0284 Inclination: 098.3374 deg RA of node: 254.3796 deg Eccentricity: 0.0002465 Arg of perigee: 052.7852 deg Mean anomaly: 307.3552 deg Mean motion: 14.24187616 rev/day Decay rate: -1.2e-07 rev/day^2 Epoch rev: 57647 Checksum: 317
Satellite: FENGYUN1 Catalog number: 25730 Epoch time: 09225.91706768 Element set: 826 Inclination: 098.7573 deg RA of node: 194.3516 deg Eccentricity: 0.0023486 Arg of perigee: 053.7884 deg Mean anomaly: 306.5454 deg Mean motion: 14.07950827 rev/day Decay rate: 4.16e-06 rev/day^2 Epoch rev: 52844 Checksum: 335
Satellite: OKEAN-0 Catalog number: 25860 Epoch time: 09225.41388555 Element set: 756 Inclination: 097.7911 deg RA of node: 204.3343 deg Eccentricity: 0.0001523 Arg of perigee: 044.5628 deg Mean anomaly: 315.5703 deg Mean motion: 14.73583424 rev/day Decay rate: 2.0e-08 rev/day^2 Epoch rev: 54157 Checksum: 290
Satellite: NOAA-16 Catalog number: 26536 Epoch time: 09225.52646149 Element set: 518 Inclination: 099.1786 deg RA of node: 230.5852 deg Eccentricity: 0.0011412 Arg of perigee: 118.3490 deg Mean anomaly: 241.8829 deg Mean motion: 14.12527055 rev/day Decay rate: -3.18e-06 rev/day^2 Epoch rev: 45839 Checksum: 316
Satellite: NOAA-17 Catalog number: 27453 Epoch time: 09225.47397543 Element set: 519 Inclination: 098.4788 deg RA of node: 282.5588 deg Eccentricity: 0.0010894 Arg of perigee: 320.3070 deg Mean anomaly: 039.7322 deg Mean motion: 14.24084248 rev/day Decay rate: 2.64e-06 rev/day^2 Epoch rev: 37090 Checksum: 327
Satellite: NOAA-18 Catalog number: 28654 Epoch time: 09225.47408071 Element set: 6 Inclination: 098.9080 deg RA of node: 168.2754 deg Eccentricity: 0.0013919 Arg of perigee: 197.8852 deg Mean anomaly: 162.1830 deg Mean motion: 14.11277894 rev/day Decay rate: 2.96e-06 rev/day^2 Epoch rev: 21803 Checksum: 325
Satellite: NOAA-19 Catalog number: 33591 Epoch time: 09225.46645150 Element set: 210 Inclination: 098.7480 deg RA of node: 169.7448 deg Eccentricity: 0.0015193 Arg of perigee: 081.4560 deg Mean anomaly: 278.8317 deg Mean motion: 14.10979583 rev/day Decay rate: 3.89e-06 rev/day^2 Epoch rev: 2651 Checksum: 328
/EX SB KEPS @ AMSAT $ORB09225.M Orbital Elements 09225.MISC
HR AMSAT ORBITAL ELEMENTS FOR MANNED AND MISCELLANEOUS SATELLITES FROM WA5QGD FORT WORTH,TX August 13, 2009 Send Subscribe/unsubscribe to KEPS at http://www.amsat.org/mailman/listinfo/keps BID: ORB09225.M TO ALL RADIO AMATEURS BT
Satellite: HUBBLE Catalog number: 20580 Epoch time: 09224.03928858 Element set: 0433 Inclination: 028.4693 deg RA of node: 097.7770 deg Eccentricity: 0.0003579 Arg of perigee: 156.1857 deg Mean anomaly: 203.8952 deg Mean motion: 15.00821899 rev/day Decay rate: 3.49e-06 rev/day^2 Epoch rev: 85825 Checksum: 336
Satellite: ISS Catalog number: 25544 Epoch time: 09225.84305566 Element set: 408 Inclination: 051.6404 deg RA of node: 010.8568 deg Eccentricity: 0.0007956 Arg of perigee: 330.8783 deg Mean anomaly: 164.5954 deg Mean motion: 15.73594045 rev/day Decay rate: 4.672e-05 rev/day^2 Epoch rev: 61503 Checksum: 313
Satellite: CO-58 Catalog number: 28895 Epoch time: 09225.22985064 Element set: 368 Inclination: 098.0503 deg RA of node: 114.2267 deg Eccentricity: 0.0018118 Arg of perigee: 166.1198 deg Mean anomaly: 194.0475 deg Mean motion: 14.59787041 rev/day Decay rate: -3.1e-07 rev/day^2 Epoch rev: 20205 Checksum: 316
Satellite: FALCON Catalog number: 30776 Epoch time: 09225.88054954 Element set: 634 Inclination: 035.4333 deg RA of node: 109.3645 deg Eccentricity: 0.0001149 Arg of perigee: 001.4121 deg Mean anomaly: 358.6598 deg Mean motion: 15.03284237 rev/day Decay rate: 2.29e-06 rev/day^2 Epoch rev: 13378 Checksum: 293
Satellite: MAST Catalog number: 31126 Epoch time: 09225.17199067 Element set: 661 Inclination: 097.9837 deg RA of node: 277.3560 deg Eccentricity: 0.0095652 Arg of perigee: 102.7777 deg Mean anomaly: 258.4144 deg Mean motion: 14.53511294 rev/day Decay rate: -7.0e-08 rev/day^2 Epoch rev: 12331 Checksum: 307
Satellite: CAPE1 Catalog number: 31130 Epoch time: 09225.12925670 Element set: 671 Inclination: 097.9852 deg RA of node: 275.3725 deg Eccentricity: 0.0103752 Arg of perigee: 108.8336 deg Mean anomaly: 252.4144 deg Mean motion: 14.52079248 rev/day Decay rate: 6.4e-07 rev/day^2 Epoch rev: 12295 Checksum: 294
Satellite: COMPASS Catalog number: 32787 Epoch time: 09225.23606026 Element set: 435 Inclination: 097.9388 deg RA of node: 288.5683 deg Eccentricity: 0.0015242 Arg of perigee: 203.6241 deg Mean anomaly: 156.4266 deg Mean motion: 14.81639524 rev/day Decay rate: 1.06e-06 rev/day^2 Epoch rev: 6989 Checksum: 319
Satellite: AAUSAT2 Catalog number: 32788 Epoch time: 09224.72648622 Element set: 0432 Inclination: 097.9375 deg RA of node: 288.1290 deg Eccentricity: 0.0014743 Arg of perigee: 206.6358 deg Mean anomaly: 153.4091 deg Mean motion: 14.81762311 rev/day Decay rate: -5.1e-07 rev/day^2 Epoch rev: 06982 Checksum: 311
Satellite: DO-64 Catalog number: 32789 Epoch time: 09224.74837861 Element set: 445 Inclination: 097.9438 deg RA of node: 288.3513 deg Eccentricity: 0.0015051 Arg of perigee: 204.2883 deg Mean anomaly: 155.7621 deg Mean motion: 14.81765560 rev/day Decay rate: 5.20e-06 rev/day^2 Epoch rev: 6982 Checksum: 334
Satellite: CO-66 Catalog number: 32791 Epoch time: 09225.21799736 Element set: 427 Inclination: 097.9395 deg RA of node: 288.5825 deg Eccentricity: 0.0015477 Arg of perigee: 201.9765 deg Mean anomaly: 158.0776 deg Mean motion: 14.81465260 rev/day Decay rate: 3.37e-06 rev/day^2 Epoch rev: 6985 Checksum: 365
Satellite: RS-30 Catalog number: 32953 Epoch time: 09224.53254200 Element set: 378 Inclination: 082.4970 deg RA of node: 221.5708 deg Eccentricity: 0.0020599 Arg of perigee: 057.7030 deg Mean anomaly: 302.6044 deg Mean motion: 12.43002858 rev/day Decay rate: 1.0e-07 rev/day^2 Epoch rev: 5539 Checksum: 269
Satellite: TACSAT-3 Catalog number: 35001 Epoch time: 09225.38195388 Element set: 71 Inclination: 040.4569 deg RA of node: 258.5845 deg Eccentricity: 0.0024776 Arg of perigee: 229.7703 deg Mean anomaly: 130.0939 deg Mean motion: 15.39031975 rev/day Decay rate: 1.271e-05 rev/day^2 Epoch rev: 1316 Checksum: 303
Satellite: PHARMSAT Catalog number: 35002 Epoch time: 09225.40413055 Element set: 70 Inclination: 040.4693 deg RA of node: 257.9486 deg Eccentricity: 0.0027800 Arg of perigee: 233.8528 deg Mean anomaly: 125.9712 deg Mean motion: 15.39789577 rev/day Decay rate: 1.234e-05 rev/day^2 Epoch rev: 1316 Checksum: 289
Satellite: HAWKSAT1 Catalog number: 35003 Epoch time: 09225.45507469 Element set: 74 Inclination: 040.4701 deg RA of node: 257.4605 deg Eccentricity: 0.0028077 Arg of perigee: 237.0031 deg Mean anomaly: 122.8593 deg Mean motion: 15.40018351 rev/day Decay rate: 1.415e-05 rev/day^2 Epoch rev: 1318 Checksum: 256
Satellite: CP6 Catalog number: 35004 Epoch time: 09225.24760044 Element set: 67 Inclination: 040.4624 deg RA of node: 258.4621 deg Eccentricity: 0.0028642 Arg of perigee: 235.0605 deg Mean anomaly: 124.7927 deg Mean motion: 15.40445144 rev/day Decay rate: 6.371e-05 rev/day^2 Epoch rev: 1314 Checksum: 265
Satellite: AEROCUB3 Catalog number: 35005 Epoch time: 09225.12791088 Element set: 67 Inclination: 040.4767 deg RA of node: 259.4042 deg Eccentricity: 0.0027762 Arg of perigee: 233.1763 deg Mean anomaly: 126.6510 deg Mean motion: 15.40237341 rev/day Decay rate: 2.669e-05 rev/day^2 Epoch rev: 1312 Checksum: 275
Satellite: DRAGNSAT Catalog number: 35690 Epoch time: 09225.49914637 Element set: 15 Inclination: 051.6400 deg RA of node: 011.8279 deg Eccentricity: 0.0004396 Arg of perigee: 127.7077 deg Mean anomaly: 232.4857 deg Mean motion: 15.80989098 rev/day Decay rate: 1.9600e-04 rev/day^2 Epoch rev: 221 Checksum: 303
/EX